Location: Saint-Usage
(47.1052°N, 5.2587°E)
Time: 14:00:22
(UTC+01:00)

CUTE-I - Visible Passes

Search period start: 06 December 2021 00:00
Search period end: 16 December 2021 00:00
Orbit: 811 x 824 km, 98.7° (Epoch: 05 December)

Date Brightness Start Highest point End Pass type
(mag) Time Alt. Az. Time Alt. Az. Time Alt. Az.
06 Dec ? 06:10:45 10° NE 06:15:20 28° E 06:19:52 10° SSE visible
06 Dec ? 17:35:11 10° SSE 17:40:25 59° ENE 17:45:42 10° N visible
06 Dec ? 19:16:49 10° SW 19:20:51 21° W 19:24:54 10° NW visible
07 Dec ? 05:49:51 10° NE 05:53:32 18° E 05:57:12 10° SE visible
07 Dec ? 07:28:43 10° N 07:34:05 69° WNW 07:39:25 10° SSW visible
07 Dec ? 17:14:02 10° SE 17:18:58 40° ENE 17:23:57 10° N visible
07 Dec ? 18:54:20 10° SSW 18:59:04 32° W 19:03:52 10° NNW visible
08 Dec ? 05:29:44 10° ENE 05:31:40 12° E 05:33:35 10° ESE visible
08 Dec ? 07:07:07 10° NNE 07:12:32 81° ESE 07:17:55 10° SSW visible
08 Dec ? 18:32:13 10° S 18:37:22 48° W 18:42:35 10° NNW visible
09 Dec ? 06:45:38 10° NNE 06:50:56 54° E 06:56:10 10° S visible
09 Dec ? 18:10:25 10° S 18:15:44 73° WSW 18:21:08 10° NNW visible
09 Dec ? 19:55:57 10° W 19:56:43 10° W 19:57:29 10° WNW visible
10 Dec ? 06:24:18 10° NNE 06:29:15 36° E 06:34:09 10° SSE visible
10 Dec ? 17:48:51 10° SSE 17:54:11 76° ENE 17:59:34 10° NNW visible
10 Dec ? 19:31:29 10° SW 19:34:49 16° W 19:38:09 10° NW visible
11 Dec ? 06:03:11 10° NE 06:07:29 24° E 06:11:46 10° SE visible
11 Dec ? 17:27:32 10° SE 17:32:41 51° ENE 17:37:53 10° N visible
11 Dec ? 19:08:39 10° SSW 19:12:59 25° W 19:17:22 10° NW visible
12 Dec ? 05:42:28 10° NE 05:45:40 16° E 05:48:52 10° SE visible
12 Dec ? 07:20:56 10° NNE 07:26:20 80° WNW 07:31:41 10° SSW visible
12 Dec ? 18:46:19 10° SSW 18:51:15 37° W 18:56:13 10° NNW visible
13 Dec ? 06:59:22 10° NNE 07:04:46 70° ESE 07:10:06 10° S visible
13 Dec ? 18:24:20 10° S 18:29:34 56° W 18:34:52 10° NNW visible
14 Dec ? 06:37:56 10° NNE 06:43:08 46° E 06:48:16 10° S visible
14 Dec ? 18:02:36 10° SSE 18:07:58 84° WSW 18:13:23 10° NNW visible
14 Dec ? 19:46:39 10° WSW 19:48:48 12° W 19:50:59 10° WNW visible
15 Dec ? 06:16:40 10° NNE 06:21:25 31° E 06:26:07 10° SSE visible
15 Dec ? 17:41:08 10° SSE 17:46:25 66° ENE 17:51:46 10° N visible
15 Dec ? 19:23:11 10° SW 19:26:56 19° W 19:30:44 10° NW visible
